Showing default

ASTRANIS UTILITYSAT, 62454

Orbit data source: Space-Track

ASTRANIS UTILITYSAT, 62454 is a UK payload satellite in HEO that was launched on Sun, 29 Dec 2024 UTC via an FALCON 9 launch vehicle from the Air Force Eastern Test Range (AFETR). Payload-class satellites include a variety of spacecraft equipped with specific instruments for various scientific and technological missions. These include communications satellites like Starlink; space stations such as the ISS; scientific satellites like the Hubble; Earth observation satellites from companies like Planet Labs, Umbra, and HawkEye 360; GPS; miniature CubeSats for education and research; and military/defense satellites.

Loading next visibility...
Identifier
62454, 2024-252A
Orbit
HEO
Country
Flag of UKUK
Related business
Manufacturer
Astranis
Mission
Operational Commercial Communications
Bus & Motor
MICROGEO, EP
Mass
400 kg wet, 400 kg dry
Launch date (UTC)
2024-12-29 (2 years ago)
Launch vehicle
FALCON 9
Launch site
Air Force Eastern Test Range (AFETR)
Object type
Payload
Rocket body
Debris
Shape & HBR
Box + 22 Pan, 5.0 m
Radar Cross Section
41.175 m², Large (>1 m²)

Expand to show TLE details & history
Last TLE update: 5 days ago

TLE from 5 days ago
0 ASTRANIS UTILITYSAT
1 62454U 24252A   26191.01587836 -.00000023  00000-0  00000-0 0  9999
2 62454   8.9946 326.3176 7581812 255.9951  17.7292  1.00284966  5655
Epoch: 2026-07-10T00:22Z
TLE epoch observation values (Epoch: 2026-07-10T00:22:51.890Z)
Latitude
0.00008°
Longitude
33.03102°
Altitude
15,732.26 km
Speed
5.157 km/s
True Right ascension
21h 46m 47s
True Declination
0° 00' 00"
Sunlit
Object was in daylight at epoch
Visualization orbit readout
Latitude
Unknown
Longitude
Unknown
Altitude
Unknown
Speed
Unknown
Apparent Right ascension
Unknown
Apparent Declination
Unknown
Sunlit
N/A
Visualization observer readout
Local Sidereal Time
10:45:20
Azimuth
Unknown
Elevation
Unknown
Doppler factor
Unknown
Orbital elements
Apogee altitude
67,755.034 km
Perigee altitude
3,818.079 km
Semi-major axis
42,164.693 km
Eccentricity
0.75818
Inclination
8.9946°
RAAN
326.3176°
Arg. of periapsis
255.9951°
True anomaly
105.41272°
Mean anomaly
17.7292°
Eccentric anomaly
51.92652°
Mean motion
0.25068 °/min
Orbital period
1,436.09 mins
BSTAR
0
Loading maneuver chart data...
Computing Atmospheric mass density...
Loading historical data...
Loading historical data...
Loading historical data...
Loading historical data...
Loading historical data...
Loading historical data...
Loading historical data...
Other satellites on launch #252 in the year 2024 (2024-12-29 UTC)

Documentation

Showing up to 5 results
|